Tiempo cada hora Alinowo

Hoy, 31 Julio, Sábado

Tiempo Temperatura Precipitaciones Viento Presión Humedad
00:00 +20°C° 0 mm 1 mps 746 mmHg 63%
01:00 +19°C° 0 mm 1 mps 746 mmHg 63%
02:00 +19°C° 0 mm 1 mps 746 mmHg 63%
03:00 +18°C° 0 mm 2 mps 745 mmHg 64%
04:00 +18°C° 0 mm 2 mps 745 mmHg 64%
05:00 +19°C° 0 mm 3 mps 745 mmHg 64%
06:00 +20°C° 0 mm 3 mps 745 mmHg 63%
07:00 +21°C° 0 mm 3 mps 745 mmHg 64%
08:00 +23°C° 0 mm 4 mps 745 mmHg 60%
09:00 +26°C° 0 mm 4 mps 745 mmHg 56%
10:00 +27°C° 0 mm 5 mps 745 mmHg 53%
11:00 +27°C° 0 mm 6 mps 745 mmHg 50%
12:00 +27°C° 0 mm 6 mps 745 mmHg 47%
13:00 +28°C° 0 mm 6 mps 745 mmHg 45%
14:00 +28°C° 0 mm 6 mps 745 mmHg 42%
15:00 +28°C° 0 mm 7 mps 745 mmHg 40%
16:00 +28°C° 0 mm 7 mps 745 mmHg 37%
17:00 +27°C° 0 mm 6 mps 745 mmHg 42%
18:00 +25°C° 0 mm 5 mps 745 mmHg 47%
19:00 +22°C° 0 mm 4 mps 746 mmHg 52%
20:00 +21°C° 0 mm 3 mps 746 mmHg 55%
21:00 +20°C° 0 mm 3 mps 746 mmHg 57%
22:00 +18°C° 0 mm 3 mps 747 mmHg 60%
23:00 +18°C° 0 mm 3 mps 747 mmHg 62%

Mañana, 1 Agosto, Domingo

Tiempo Temperatura Precipitaciones Viento Presión Humedad
00:00 +17°C° 0 mm 3 mps 747 mmHg 65%
01:00 +17°C° 0 mm 3 mps 747 mmHg 67%
02:00 +16°C° 0 mm 3 mps 747 mmHg 70%
03:00 +16°C° 0 mm 3 mps 747 mmHg 72%
04:00 +14°C° 0 mm 3 mps 747 mmHg 75%
05:00 +16°C° 0 mm 3 mps 747 mmHg 73%
06:00 +18°C° 0 mm 3 mps 747 mmHg 70%
07:00 +19°C° 0 mm 2 mps 747 mmHg 68%
08:00 +19°C° 0 mm 3 mps 747 mmHg 67%
09:00 +19°C° 0 mm 3 mps 747 mmHg 66%
10:00 +20°C° 0 mm 3 mps 747 mmHg 66%
11:00 +19°C° 0.3 mm 3 mps 747 mmHg 71%
12:00 +19°C° 0.3 mm 3 mps 747 mmHg 75%
13:00 +18°C° 0.3 mm 3 mps 747 mmHg 80%
14:00 +18°C° 0.5 mm 3 mps 747 mmHg 82%
15:00 +18°C° 0.5 mm 3 mps 747 mmHg 84%
16:00 +17°C° 0.5 mm 3 mps 747 mmHg 86%
17:00 +17°C° 0.1 mm 3 mps 747 mmHg 86%
18:00 +17°C° 0.1 mm 3 mps 747 mmHg 86%
19:00 +17°C° 0.1 mm 2 mps 746 mmHg 86%
20:00 +16°C° 0 mm 3 mps 746 mmHg 88%
21:00 +16°C° 0 mm 3 mps 746 mmHg 90%
22:00 +14°C° 0 mm 3 mps 746 mmHg 91%
23:00 +14°C° 0 mm 3 mps 746 mmHg 92%

Pasado mañana, 2 Agosto, Lunes

Tiempo Temperatura Precipitaciones Viento Presión Humedad
00:00 +14°C° 0 mm 3 mps 746 mmHg 92%
01:00 +14°C° 0 mm 3 mps 747 mmHg 92%
02:00 +15°C° 0 mm 2 mps 747 mmHg 91%
03:00 +15°C° 0 mm 2 mps 747 mmHg 91%
04:00 +15°C° 0 mm 2 mps 746 mmHg 90%
05:00 +16°C° 0 mm 3 mps 747 mmHg 85%
06:00 +17°C° 0 mm 3 mps 747 mmHg 81%
07:00 +18°C° 0 mm 3 mps 747 mmHg 77%
08:00 +19°C° 0.1 mm 4 mps 747 mmHg 71%
09:00 +20°C° 0.1 mm 5 mps 747 mmHg 65%
10:00 +22°C° 0.1 mm 6 mps 748 mmHg 59%
11:00 +22°C° 0.3 mm 6 mps 748 mmHg 58%
12:00 +22°C° 0.3 mm 6 mps 748 mmHg 58%
13:00 +22°C° 0.3 mm 6 mps 748 mmHg 57%
14:00 +22°C° 0.1 mm 5 mps 748 mmHg 54%
15:00 +22°C° 0.1 mm 5 mps 748 mmHg 50%
16:00 +23°C° 0.1 mm 5 mps 748 mmHg 47%
17:00 +22°C° 0 mm 4 mps 748 mmHg 49%
18:00 +21°C° 0 mm 4 mps 748 mmHg 52%
19:00 +20°C° 0 mm 3 mps 748 mmHg 54%
20:00 +19°C° 0 mm 3 mps 749 mmHg 54%
21:00 +18°C° 0 mm 3 mps 749 mmHg 54%
22:00 +18°C° 0 mm 2 mps 749 mmHg 54%
23:00 +17°C° 0 mm 3 mps 750 mmHg 57%

3 Agosto, Martes

Tiempo Temperatura Precipitaciones Viento Presión Humedad
00:00 +16°C° 0 mm 3 mps 750 mmHg 60%
01:00 +16°C° 0 mm 3 mps 750 mmHg 63%
02:00 +14°C° 0 mm 3 mps 750 mmHg 67%
03:00 +14°C° 0 mm 3 mps 750 mmHg 70%
04:00 +13°C° 0 mm 3 mps 750 mmHg 74%
05:00 +14°C° 0 mm 3 mps 751 mmHg 71%
06:00 +16°C° 0 mm 3 mps 751 mmHg 69%
07:00 +17°C° 0 mm 3 mps 751 mmHg 67%
08:00 +19°C° 0 mm 4 mps 751 mmHg 60%
09:00 +20°C° 0 mm 4 mps 751 mmHg 54%
10:00 +22°C° 0 mm 4 mps 751 mmHg 48%
11:00 +22°C° 0 mm 4 mps 751 mmHg 45%
12:00 +23°C° 0 mm 4 mps 751 mmHg 42%
13:00 +25°C° 0 mm 4 mps 751 mmHg 40%
14:00 +25°C° 0 mm 4 mps 750 mmHg 40%
15:00 +25°C° 0 mm 3 mps 750 mmHg 40%
16:00 +25°C° 0 mm 3 mps 750 mmHg 40%
17:00 +24°C° 0 mm 3 mps 750 mmHg 46%
18:00 +23°C° 0 mm 2 mps 749 mmHg 52%
19:00 +21°C° 0 mm 2 mps 749 mmHg 58%
20:00 +20°C° 0.7 mm 2 mps 749 mmHg 67%
21:00 +18°C° 0.7 mm 2 mps 749 mmHg 75%
22:00 +17°C° 0.7 mm 2 mps 749 mmHg 84%
23:00 +17°C° 0.6 mm 2 mps 749 mmHg 87%

4 Agosto, Miércoles

Tiempo Temperatura Precipitaciones Viento Presión Humedad
00:00 +16°C° 0.6 mm 3 mps 749 mmHg 90%
01:00 +16°C° 0.6 mm 3 mps 749 mmHg 92%
02:00 +14°C° 0.1 mm 3 mps 749 mmHg 93%
03:00 +14°C° 0.1 mm 3 mps 749 mmHg 94%
04:00 +13°C° 0.1 mm 3 mps 749 mmHg 95%
05:00 +14°C° 0 mm 4 mps 749 mmHg 91%
06:00 +15°C° 0 mm 4 mps 749 mmHg 87%
07:00 +15°C° 0 mm 4 mps 750 mmHg 84%
08:00 +17°C° 0 mm 4 mps 750 mmHg 77%
09:00 +19°C° 0 mm 5 mps 750 mmHg 71%
10:00 +20°C° 0 mm 5 mps 750 mmHg 64%
11:00 +20°C° 0 mm 5 mps 750 mmHg 60%
12:00 +21°C° 0 mm 5 mps 750 mmHg 56%
13:00 +22°C° 0 mm 5 mps 750 mmHg 53%
14:00 +21°C° 0 mm 4 mps 750 mmHg 56%
15:00 +20°C° 0 mm 4 mps 749 mmHg 60%
16:00 +20°C° 0 mm 4 mps 749 mmHg 63%
17:00 +19°C° 0 mm 3 mps 749 mmHg 66%
18:00 +19°C° 0 mm 3 mps 749 mmHg 70%
19:00 +18°C° 0 mm 2 mps 749 mmHg 73%
20:00 +18°C° 0 mm 2 mps 749 mmHg 74%
21:00 +17°C° 0 mm 2 mps 749 mmHg 75%
22:00 +18°C° 0 mm 1 mps 749 mmHg 77%
23:00 +18°C° 0 mm 1 mps 749 mmHg 78%

5 Agosto, Jueves

Tiempo Temperatura Precipitaciones Viento Presión Humedad
00:00 +18°C° 0 mm 1 mps 748 mmHg 78%
01:00 +16°C° 0 mm 0 mps 748 mmHg 79%
02:00 +15°C° 0.1 mm 0 mps 747 mmHg 81%
03:00 +16°C° 0.1 mm 1 mps 747 mmHg 83%
04:00 +16°C° 0.1 mm 1 mps 747 mmHg 85%
05:00 +16°C° 0.8 mm 1 mps 747 mmHg 86%
06:00 +16°C° 0.8 mm 1 mps 746 mmHg 88%
07:00 +16°C° 0.8 mm 1 mps 746 mmHg 90%
08:00 +16°C° 1 mm 1 mps 746 mmHg 89%
09:00 +16°C° 1 mm 1 mps 746 mmHg 88%
10:00 +16°C° 1 mm 2 mps 746 mmHg 88%
11:00 +16°C° 0.8 mm 2 mps 746 mmHg 88%
12:00 +17°C° 0.8 mm 2 mps 745 mmHg 88%
13:00 +17°C° 0.8 mm 2 mps 745 mmHg 89%
14:00 +17°C° 0.5 mm 2 mps 745 mmHg 88%
15:00 +17°C° 0.5 mm 2 mps 745 mmHg 87%
16:00 +18°C° 0.5 mm 1 mps 744 mmHg 86%
17:00 +18°C° 0.2 mm 1 mps 744 mmHg 85%
18:00 +18°C° 0.2 mm 1 mps 744 mmHg 85%
19:00 +18°C° 0.2 mm 1 mps 744 mmHg 84%
20:00 +17°C° 0 mm 2 mps 744 mmHg 85%
21:00 +17°C° 0 mm 2 mps 744 mmHg 86%
22:00 +16°C° 0 mm 3 mps 743 mmHg 87%
23:00 +16°C° 0 mm 3 mps 743 mmHg 89%
Mostrar más

Necesitamos Su Consentimiento

Meteoprog y nuestros Proveedores de Servicios pueden almacenar y acceder a sus datos personales como cookies, identificadores de dispositivo u otras tecnologías similares de su dispositivo y procesar dichos datos para personalizar contenido y anuncios, además de ofrecer funciones de redes sociales y analizar el tráfico.

  • Almacenar y/o acceder a información en su dispositivo

    Se puede almacenar o acceder a cookies, identificadores de dispositivo u otra información de su dispositivo para los fines anteriormente indicados.

  • Anuncios y contenido personalizados, medición de anuncios y contenido, percepciones del público, y desarrollo de productos

    Los anuncios y el contenido pueden personalizarse en base a su perfil. Se pueden añadir más datos para personalizar mejor los anuncios y contenidos. Se puede medir el rendimiento de los anuncios y contenidos. Se puede obtener la percepción sobre el público que ha visto los anuncios y contenidos. Dichos datos pueden usarse para desarrollar o mejorar la experiencia del usuario, sistemas y software.

Al hacer clic en ‘Estoy De Acuerdo’ usted permitirá el uso de las cookies, identificadores de dispositivo, balizas web u otras tecnologías similares indicadas. Su configuración puede cambiarse desde el navegador de su dispositivo.

Para ciertos fines, los intereses legítimos pueden ser considerados por encima del consentimiento. Puede leer más sobre ello en nuestra Política de Privacidad y Cookies.